Weather History for Tegucigalpa, Honduras

Change the Weather History Date:

Sunday, May 6, 2012

  Actual Average Record
Temperature  
Mean Temperature 76 °F -  
Max Temperature 85 °F 83 °F 93 °F (1998)
Min Temperature 66 °F 64 °F 35 °F (2005)
Cooling Degree Days 10    
Growing Degree Days 26 (Base 50)    
Moisture  
Dew Point 67 °F    
Average Humidity 82    
Maximum Humidity 100    
Minimum Humidity 44    
Precipitation  
Precipitation 0.83 in 0.19 in - ()
Sea Level Pressure  
Sea Level Pressure 30.01 in    
Wind  
Wind Speed 2 mph ()    
Max Wind Speed 9 mph    
Max Gust Speed -    
Visibility 4.7 miles    
Events Rain , Thunderstorm    
Averages and records for this station are not official NWS values.
T = Trace of Precipitation, MM = Missing Value Source: Averaged Metar Reports

Daily Weather History Graph

Daily Weather History Graph

Search for Another Location

Airport:

Trip Planner

Search our weather history database for the weather conditions in past years. The results will help you decide how hot, cold, wet, or windy it might be!

Date:

Astronomy

May. 06, 2012 Rise Set
Actual Time 5:24 AM CST 6:06 PM CST
Civil Twilight 5:02 AM CST 6:28 PM CST
Nautical Twilight 4:35 AM CST 6:55 PM CST
Astronomical Twilight 4:09 AM CST 7:21 PM CST
Moon 6:59 PM CST (5/6) 5:42 AM CST (5/6)
Length of Visible Light 13h 26m
Length of Day
12h 41m
Waxing Gibbous, 99% of the Moon is Illuminated
May 6
Waxing Gibbous
May 12
Last Quarter
May 20
New
May 28
First Quarter
Jun 4
Full

Hourly Weather History & Observations

Time (CST) Temp. Heat Index Dew Point Humidity Pressure Visibility Wind Dir Wind Speed Gust Speed Precip Events Conditions
12:00 AM 68 °F - 68 °F 100% 29.93 in 3 mi Calm Calm - - Rain , Thunderstorm Thunderstorms and Rain
12:00 AM 68.0 °F - 68.0 °F 100% 30.09 in 3.1 mi Calm Calm - N/A Thunderstorm Unknown
1:00 AM 68.0 °F - 68.0 °F 100% 30.06 in 3.1 mi NE 2.3 mph - N/A Rain Light Rain
2:00 AM 68.0 °F - 68.0 °F 100% 30.04 in 3.1 mi North 2.3 mph - N/A Thunderstorm Thunderstorm
3:00 AM 68 °F - 68 °F 100% 29.87 in 3 mi WSW 2.3 mph - - Thunderstorm Light Thunderstorm
3:00 AM 68.0 °F - 68.0 °F 100% 30.04 in 3.1 mi WSW 2.3 mph - N/A   Overcast
4:00 AM 68.0 °F - 66.2 °F 94% 30.04 in 2.5 mi West 4.6 mph - N/A Rain , Thunderstorm Thunderstorms and Rain
5:00 AM 66.2 °F - 66.2 °F 100% 30.04 in 2.5 mi South 4.6 mph - N/A Rain , Thunderstorm Light Thunderstorms and Rain
6:00 AM 67 °F - 67 °F 100% 29.90 in 1 mi Calm Calm - - Thunderstorm Light Thunderstorm
6:00 AM 68.0 °F - 68.0 °F 100% 30.06 in 1.2 mi Calm Calm - N/A   Mostly Cloudy
7:00 AM 68.0 °F - 68.0 °F 100% 30.09 in 1.2 mi Calm Calm - N/A   Mostly Cloudy
8:00 AM 71.6 °F - 69.8 °F 94% 30.09 in 6.2 mi West 3.5 mph - N/A   Mostly Cloudy
9:00 AM 73 °F - 68 °F 79% 29.93 in 2 mi NE 3.5 mph - -   Mostly Cloudy
9:00 AM 73.4 °F - 68.0 °F 83% 30.12 in 6.2 mi NE 3.5 mph - N/A   Mostly Cloudy
10:00 AM 77.0 °F - 68.0 °F 74% 30.09 in 6.2 mi Calm Calm - N/A   Mostly Cloudy
11:00 AM 77.0 °F - 68.0 °F 74% 30.06 in 6.2 mi Calm Calm - N/A   Mostly Cloudy
12:00 PM 79 °F - 68 °F 62% 29.83 in 6 mi SE 3.5 mph - -   Haze
12:00 PM 78.8 °F - 68.0 °F 69% 30.06 in 6.2 mi SE 3.5 mph - N/A   Mostly Cloudy
1:00 PM 78.8 °F - 68.0 °F 69% 30.04 in 6.2 mi South 3.5 mph - N/A   Mostly Cloudy
2:00 PM 84.2 °F 86.6 °F 66.2 °F 55% 30.01 in 6.2 mi Variable 2.3 mph - N/A   Mostly Cloudy
3:00 PM 83 °F - 68 °F 52% 29.74 in 6 mi NNW 4.6 mph - -   Haze
3:00 PM 82.4 °F 85.4 °F 68.0 °F 62% 30.01 in 6.2 mi SW 4.6 mph - N/A   Scattered Clouds
4:00 PM 84.2 °F 86.6 °F 66.2 °F 55% 29.98 in 6.2 mi West 5.8 mph - N/A   Scattered Clouds
5:00 PM 73.4 °F - 66.2 °F 78% 30.01 in 5.0 mi ESE 9.2 mph - N/A Thunderstorm Thunderstorm
6:00 PM 72 °F - 64 °F 68% 29.83 in 6 mi SE 4.6 mph - - Thunderstorm Thunderstorm
6:00 PM 71.6 °F - 64.4 °F 78% 30.01 in 6.2 mi SE 4.6 mph - N/A Thunderstorm Thunderstorm
7:00 PM 69.8 °F - 62.6 °F 78% 30.04 in 6.2 mi Calm Calm - N/A   Scattered Clouds
8:00 PM 69.8 °F - 66.2 °F 88% 30.06 in 6.2 mi Variable 2.3 mph - N/A Thunderstorm Thunderstorm
9:00 PM 85 °F - 67 °F 44% 29.90 in 6 mi ENE 3.5 mph - - Thunderstorm Thunderstorm
9:00 PM 69.8 °F - 66.2 °F 88% 30.06 in 6.2 mi ENE 3.5 mph - N/A Thunderstorm Thunderstorm
10:00 PM 69.8 °F - 66.2 °F 88% 30.09 in 6.2 mi Calm Calm - N/A Thunderstorm Thunderstorm
11:00 PM 69.8 °F - 68.0 °F 94% 30.06 in 6.2 mi WSW 4.6 mph - N/A Rain , Thunderstorm Light Thunderstorms and Rain